Home   Weather   New Melbourne   Past weeks
Flag for Canada

Past Weather in New Melbourne, Newfoundland and Labrador, Canada — Yesterday and Last 2 Weeks

Now
32 °F

Light freezing rain. Low clouds.


Feels Like: 18 °F
Forecast: N/A
Wind: 28 mph from East

Location: St. John's

Current Time: Apr 25, 2019 at 9:27:38 pm

Latest Report: Apr 25, 2019 at 9:02 pm


Visibility: 8 mi

Pressure: 29.87 "Hg

Humidity: 100%

Dew Point: 32 °F

Location of New MelbourneLocation

Past Weather in New Melbourne — Graph

°F

New Melbourne Temperature Yesterday

Maximum temperature yesterday: 30 °F (at 12:30 am)
Minimum temperature yesterday: 28 °F (at 2:00 am)
Average temperature yesterday: 30 °F

High & Low Weather Summary for the Past Weeks

 TemperatureHumidityPressure
High55 °F (Apr 22, 4:30 am)100% (Apr 10, 7:46 pm)30.50 "Hg (Apr 10, 7:46 pm)
Low23 °F (Apr 19, 1:30 am)33% (Apr 13, 5:30 pm)28.88 "Hg (Apr 17, 5:04 am)
Average36 °F88%29.86 "Hg
* Reported Apr 10 7:46 pm — Apr 25 7:30 pm, New Melbourne. Weather by CustomWeather, © 2019

Note: Actual official high and low records may vary slightly from our data, if they occured in-between our weather recording intervals... More about our weather records

Advertising

New Melbourne Weather History for the Previous 24 Hours

Scroll right to see more
 ConditionsComfort  
Time TempWeatherWind HumidityBarometerVisibility
7:30 pm
Thu, Apr 25
32 °FSleet. Ice fog.20 mph100%29.92 "Hg3 mi
6:30 pm32 °FSleet. Ice fog.25 mph100%29.94 "Hg1 mi
6:09 pm32 °FSleet. Ice fog.24 mph100%29.95 "Hg1 mi
5:30 pm32 °FLight snow. Ice fog.25 mph100%29.95 "Hg1 mi
4:30 pm32 °FLight snow. Low clouds.24 mph100%29.99 "Hg1 mi
3:30 pm32 °FLight snow. Low clouds.25 mph100%30.01 "Hg1 mi
3:21 pm32 °FLight snow. Low clouds.23 mph100%30.01 "Hg1 mi
2:30 pm32 °FSnow. Low clouds.20 mph100%30.02 "Hg1 mi
10:30 am32 °FOvercast.17 mph100%30.06 "Hg15 mi
9:30 am30 °FOvercast.18 mph100%30.05 "Hg15 mi
8:30 am30 °FOvercast.17 mph100%30.05 "Hg15 mi
7:30 am30 °FPartly sunny.16 mph100%30.03 "Hg12 mi
6:30 am30 °FMostly cloudy.18 mph100%30.02 "Hg12 mi
5:30 am30 °FLow clouds.16 mph100%30.01 "Hg10 mi
4:30 am30 °FIce fog.20 mph100%29.98 "Hg3 mi
4:21 am30 °FIce fog.16 mph100%29.99 "Hg2 mi
3:57 am30 °FIce fog.15 mph100%29.99 "Hg5 mi
3:30 am30 °FLow clouds.14 mph100%29.98 "Hg8 mi
2:30 am30 °FIce fog.16 mph100%29.96 "Hg5 mi
1:30 am30 °FIce fog.18 mph100%29.94 "Hg0 mi
12:51 am30 °FIce fog.17 mph100%29.93 "Hg0 mi
12:22 am30 °FIce fog.20 mph100%29.90 "Hg2 mi
11:58 pm
Wed, Apr 24
30 °FIce fog.22 mph100%29.89 "Hg4 mi
11:45 pm30 °FIce fog.15 mph100%29.89 "Hg1 mi
11:30 pm30 °FIce fog.18 mph100%29.88 "Hg1 mi
10:30 pm30 °FIce fog.18 mph100%29.86 "Hg1 mi
9:30 pm30 °FIce fog.17 mph100%29.84 "Hg1 mi
Weather by CustomWeather, © 2019

See weather overview